カタログに戻る

COSMOS 839 DEB *

運用中UNKNOWN
NORAD 20030·DEBRIS·🇷🇺 Russia

打ち上げ Jul 8, 1976 から Plesetsk Cosmodrome

Loading…

次のパス (今後24時間)

TLE

最新Source: Space-Track

元期: Sep 4, 2026, 17:20 UTC

1 20030U 76067BU  26247.72272489  .00000381  00000-0  14632-2 0  9993
2 20030  65.6762 258.6698 0782113 159.0997 204.3924 12.24636021240709

AllMySatでCOSMOS 839 DEB *をリアルタイム追跡

Download on the App Store